Wind_Speed
42 43 43 44 44 45 45 46 47 47 48 49 51 51 52 53 53 54 54 54 55 55 55 55 55 55 55 55 56 56 57 57 58 56 56 55 55 56 56 56 57 57 57
42 42 42 43 44 44 46 47 47 48 48 50 50 51 52 52 53 53 54 54 54 54 53 54 54 54 54 55 55 56 56 56 57 56 55 54 54 55 55 55 56 57 57
42 42 43 43 44 45 46 46 47 47 49 49 50 51 51 52 52 53 54 54 53 53 53 53 53 53 54 55 55 55 55 55 55 55 53 53 54 54 54 55 55 56 57
42 42 43 43 44 45 46 46 46 47 48 49 50 50 51 52 53 54 54 53 53 53 53 53 53 53 53 53 53 53 53 54 54 53 52 52 53 53 54 54 54 55 55
42 43 43 44 45 45 46 46 47 48 49 49 50 50 51 52 52 53 53 53 53 53 52 52 52 52 51 52 52 52 52 52 51 52 52 51 51 51 51 52 52 53 53
42 43 44 44 45 45 46 46 47 48 49 49 50 50 51 51 52 52 52 52 52 52 51 51 51 51 51 51 51 51 51 51 51 51 51 51 50 51 51 51 50 51 51
42 43 43 44 45 45 46 46 47 48 48 49 50 50 51 51 52 52 52 52 51 51 50 50 50 51 50 50 50 50 51 51 51 51 50 50 50 50 50 49 49 49 48
41 42 43 44 45 46 47 47 48 48 48 49 49 50 50 50 51 51 51 50 49 49 49 50 50 50 50 50 50 50 50 51 51 51 51 50 50 49 49 49 48 47 46
41 43 43 44 45 45 46 47 47 48 48 49 49 49 49 49 49 49 49 49 49 49 50 50 50 50 49 50 49 49 48 48 48 48 49 48 48 49 48 47 46 45 43
41 42 43 44 44 45 45 46 46 47 47 48 48 47 47 47 48 48 49 48 48 49 49 49 49 48 48 48 47 47 46 45 45 44 45 45 45 45 44 43 42 42 40
41 42 42 43 43 44 44 45 45 45 45 45 45 46 46 47 47 47 48 48 48 47 47 47 46 46 46 46 46 45 44 43 43 43 43 42 42 41 40 40 39 38 36
41 41 41 42 42 43 43 43 43 43 43 43 44 44 44 45 46 46 46 46 46 45 45 45 45 45 44 44 44 43 43 43 42 42 41 40 38 37 37 36 35 35 34
40 40 40 40 41 41 41 41 41 41 41 42 42 43 43 43 44 44 44 43 43 44 44 44 43 43 42 42 42 41 41 41 40 39 37 36 35 34 33 33 33 33 32
38 38 39 39 39 39 39 39 39 40 41 41 41 41 42 42 42 42 42 42 42 43 43 42 42 42 41 40 40 39 39 38 37 35 33 32 32 32 32 31 30 29 29
37 37 37 37 37 37 38 38 39 39 40 39 39 40 41 41 41 41 41 41 41 41 41 41 41 40 39 39 38 38 37 36 34 32 30 30 29 29 29 29 27 27 26
35 35 35 36 36 37 37 37 38 38 38 38 39 39 40 40 40 39 39 40 40 40 40 40 38 38 38 37 37 36 35 34 32 31 29 28 28 28 27 27 26 26 24
34 34 34 35 35 36 36 37 37 37 38 38 39 39 39 38 38 38 39 39 39 39 38 37 37 36 35 35 34 33 32 31 29 28 28 27 27 26 25 25 25 23 22
33 33 34 34 34 35 35 36 37 37 37 38 38 37 37 37 37 37 38 39 39 38 37 36 35 34 33 33 32 31 29 28 27 26 26 25 24 23 23 23 23 21 20
33 33 34 34 34 35 35 35 36 36 36 37 36 36 36 36 37 37 38 38 37 36 35 34 32 31 31 30 30 28 27 25 25 24 23 23 23 22 22 21 21 20 18
33 33 34 34 35 35 35 36 36 36 36 35 35 35 35 36 36 36 37 36 35 34 33 31 30 30 29 28 27 26 25 23 22 21 21 20 20 20 20 19 18 17 16
33 33 33 34 34 34 35 35 35 35 34 34 34 34 35 35 35 35 35 34 32 31 30 29 28 28 27 26 25 24 22 21 21 20 20 19 18 18 18 17 16 16 15
32 32 32 33 33 34 34 34 34 33 33 32 33 33 33 33 33 33 31 30 29 28 27 26 26 26 25 24 23 22 21 20 20 19 18 18 17 17 16 16 15 14 13
30 31 31 32 33 33 33 33 32 31 31 30 31 31 31 31 30 29 28 27 26 26 25 25 24 23 22 21 19 18 17 17 17 16 16 16 16 15 15 14 13 12 11
30 30 30 31 31 31 31 30 30 30 29 29 29 29 28 27 26 26 25 25 24 23 22 22 21 20 19 18 17 16 16 15 14 14 14 13 13 13 12 11 10 9 9
28 28 29 29 29 29 29 29 28 28 28 27 27 26 25 25 24 24 23 22 21 20 20 20 19 18 17 16 15 15 15 14 14 13 12 12 11 10 9 9 8 8 8
26 27 27 27 28 28 28 27 27 26 26 26 25 24 24 23 23 22 21 20 19 19 18 18 17 16 15 14 14 14 13 13 12 11 10 10 9 8 8 7 7 7 8
Wind_Direction
269 270 269 270 271 272 273 274 275 276 277 279 280 281 283 284 285 286 286 286 287 287 287 287 288 288 288 288 287 286 286 286 286 285 283 282 280 278 279 278 277 276 276
268 269 270 270 271 272 273 275 277 278 278 279 281 282 284 285 285 286 286 287 287 287 287 288 288 288 288 288 287 287 286 287 287 287 284 281 280 279 279 280 279 278 277
269 270 271 271 271 273 275 276 277 278 279 281 282 283 285 285 285 286 287 288 288 288 288 288 289 288 289 289 288 287 287 287 288 288 285 282 280 280 280 280 280 279 278
269 269 270 271 272 274 275 276 277 279 280 282 283 284 285 285 286 287 288 288 288 288 289 289 289 290 290 289 289 288 288 288 288 287 285 283 282 281 280 280 281 279 278
268 269 271 272 274 274 275 275 277 279 281 282 283 285 286 287 287 287 288 288 288 288 289 290 291 291 290 290 289 289 289 288 288 287 285 284 283 282 281 282 283 281 279
269 270 271 273 274 274 275 276 278 280 282 282 283 285 286 287 288 288 289 289 289 289 289 290 291 290 290 290 291 290 290 289 288 288 286 285 284 283 282 283 283 282 280
269 271 272 273 274 275 276 278 279 281 282 284 285 286 287 288 288 289 290 290 290 290 290 290 291 291 291 290 290 290 290 289 289 288 287 286 286 285 285 285 284 283 282
269 271 273 274 275 276 277 278 280 281 283 284 285 286 287 288 289 289 290 290 290 291 291 291 292 292 292 291 291 290 290 289 288 287 286 287 287 288 288 287 285 284 283
269 271 273 274 275 276 277 278 280 282 283 284 286 287 288 289 289 290 290 290 290 291 292 292 293 293 293 292 292 291 291 290 289 288 288 289 290 289 289 288 285 284 283
270 272 272 274 276 277 278 280 281 282 283 284 286 287 288 289 290 290 290 291 292 292 292 292 293 293 293 293 293 292 292 291 290 289 290 291 290 290 289 288 286 285 282
271 273 273 275 277 278 279 281 282 283 284 285 286 287 288 289 290 291 292 293 293 293 293 293 293 293 294 294 293 294 293 293 291 290 290 290 290 289 288 288 287 285 283
272 273 275 276 277 279 280 282 282 283 284 285 286 287 289 290 291 292 293 294 294 294 294 294 294 294 294 294 294 294 294 293 292 291 291 290 289 288 287 287 286 285 284
272 273 275 277 278 279 280 282 283 284 285 286 287 289 290 291 292 293 294 294 294 294 296 296 295 295 295 295 295 295 296 295 294 293 291 289 288 287 286 286 286 285 283
272 273 275 276 278 279 280 282 283 284 286 287 289 290 291 292 293 293 294 294 295 296 297 297 297 296 296 296 296 296 296 296 296 294 291 290 288 287 286 286 286 285 283
272 273 274 276 278 280 281 282 283 286 287 289 290 292 293 293 294 294 295 295 296 297 298 298 297 296 296 296 296 295 296 295 295 294 292 290 288 287 286 285 285 286 284
272 273 275 277 279 281 282 283 285 287 288 290 292 293 294 295 296 296 296 297 297 299 299 299 298 297 296 296 296 296 296 294 294 292 290 290 289 287 285 284 286 286 284
272 273 275 277 280 282 283 285 286 288 290 292 293 294 295 296 297 297 298 298 299 300 300 300 299 299 298 297 297 297 296 294 292 291 290 289 289 287 285 284 285 284 281
272 274 276 278 281 283 284 286 287 289 291 292 294 294 295 296 297 298 299 300 301 301 300 300 300 299 299 299 299 298 296 293 292 290 289 288 288 286 286 285 285 283 278
273 275 277 279 282 284 285 287 289 291 292 293 294 295 296 296 298 299 300 301 302 301 300 300 300 300 299 299 300 299 298 295 293 290 288 288 287 286 285 285 285 283 278
273 275 277 280 282 284 286 288 290 291 292 293 293 295 296 297 298 300 301 302 302 301 300 299 299 299 300 299 300 299 297 295 293 291 290 289 289 287 284 284 284 280 275
273 275 278 281 283 285 287 290 291 292 292 293 294 295 296 298 298 300 301 301 302 301 299 298 298 300 300 299 298 297 295 294 292 291 290 290 291 288 284 283 283 277 272
275 277 279 282 284 286 289 291 292 292 292 294 295 296 298 299 300 301 301 300 301 301 300 300 299 299 300 299 297 294 293 291 290 290 289 289 290 290 287 285 281 273 267
276 279 281 284 286 288 290 292 292 292 293 295 297 299 300 300 301 300 300 299 300 300 299 300 300 300 300 299 297 295 295 293 292 291 291 290 289 289 285 282 277 267 260
278 280 282 284 286 288 290 292 292 293 294 295 297 299 300 300 300 301 300 300 301 301 301 301 301 301 301 299 298 297 296 297 296 295 294 293 293 291 286 278 270 261 257
280 282 283 284 285 288 290 291 292 293 295 297 297 297 297 298 299 300 300 300 301 301 302 302 302 302 300 299 298 297 297 297 298 298 296 294 292 288 283 275 263 253 251
282 283 284 284 286 288 289 289 291 293 295 296 297 296 296 296 298 299 300 300 300 302 302 302 302 303 302 299 298 297 298 298 297 297 295 294 290 286 281 269 255 249 247
Height
5671 5671 5670 5669 5669 5668 5667 5666 5665 5663 5661 5659 5657 5655 5652 5649 5646 5643 5639 5636 5632 5629 5625 5621 5617 5613 5609 5606 5602 5599 5595 5592 5589 5590 5586 5583 5579 5577 5576 5574 5572 5571 5570
5660 5659 5659 5658 5657 5656 5655 5654 5652 5651 5649 5647 5644 5642 5639 5636 5632 5629 5626 5622 5618 5615 5611 5607 5604 5599 5595 5591 5587 5584 5580 5577 5573 5572 5570 5567 5564 5561 5559 5557 5555 5554 5553
5649 5648 5648 5647 5646 5645 5644 5642 5640 5638 5636 5634 5631 5629 5626 5623 5619 5616 5612 5608 5605 5601 5597 5593 5589 5585 5582 5577 5573 5569 5566 5562 5558 5555 5554 5551 5548 5545 5543 5541 5539 5537 5536
5638 5637 5637 5636 5635 5634 5632 5630 5628 5626 5624 5622 5619 5616 5613 5610 5606 5602 5599 5595 5591 5587 5583 5579 5575 5571 5567 5563 5559 5555 5551 5547 5544 5540 5538 5536 5533 5530 5527 5525 5523 5521 5520
5626 5626 5625 5624 5623 5621 5620 5618 5616 5614 5612 5609 5606 5604 5600 5597 5593 5589 5585 5581 5577 5573 5569 5565 5561 5557 5553 5549 5545 5541 5537 5533 5530 5526 5524 5521 5518 5515 5513 5510 5508 5506 5504
5615 5615 5614 5613 5611 5610 5608 5606 5604 5602 5599 5597 5594 5591 5588 5584 5580 5575 5571 5567 5564 5560 5556 5552 5548 5544 5539 5535 5531 5527 5523 5519 5516 5512 5509 5507 5504 5501 5498 5495 5492 5490 5490
5604 5603 5602 5601 5599 5598 5596 5594 5592 5590 5587 5584 5581 5578 5575 5571 5567 5562 5558 5554 5550 5547 5543 5539 5535 5530 5526 5522 5518 5514 5509 5505 5501 5498 5495 5493 5490 5487 5484 5482 5478 5475 5474
5592 5592 5590 5589 5588 5586 5584 5582 5580 5578 5575 5572 5569 5565 5562 5558 5554 5550 5546 5541 5538 5534 5530 5526 5522 5518 5513 5508 5505 5501 5496 5492 5488 5484 5482 5479 5476 5472 5469 5466 5463 5461 5459
5581 5580 5579 5577 5576 5574 5572 5570 5568 5565 5562 5559 5556 5552 5549 5545 5541 5537 5533 5529 5525 5521 5517 5513 5508 5504 5500 5495 5491 5487 5483 5479 5474 5470 5467 5464 5461 5457 5454 5451 5449 5447 5446
5570 5569 5568 5566 5564 5563 5560 5558 5555 5553 5550 5547 5543 5540 5537 5533 5529 5525 5520 5517 5513 5509 5505 5500 5495 5491 5486 5481 5477 5474 5471 5467 5462 5458 5454 5451 5447 5444 5441 5438 5436 5434 5433
5559 5558 5557 5555 5553 5551 5549 5546 5543 5541 5538 5535 5532 5528 5525 5521 5517 5513 5508 5504 5500 5496 5492 5488 5483 5478 5474 5469 5465 5461 5458 5454 5450 5446 5443 5439 5436 5433 5429 5426 5424 5422 5421
5549 5547 5546 5544 5542 5539 5537 5535 5532 5529 5526 5523 5520 5517 5513 5509 5505 5501 5497 5492 5488 5484 5480 5476 5471 5466 5462 5458 5453 5450 5445 5441 5437 5434 5430 5427 5425 5422 5419 5416 5414 5412 5410
5538 5536 5534 5533 5531 5528 5526 5523 5521 5518 5515 5512 5509 5505 5502 5498 5494 5489 5485 5480 5476 5472 5468 5464 5459 5455 5451 5447 5443 5438 5434 5430 5426 5422 5419 5416 5414 5412 5409 5407 5405 5403 5401
5527 5525 5524 5522 5520 5517 5515 5512 5510 5507 5504 5501 5497 5494 5490 5486 5482 5478 5474 5470 5465 5461 5457 5453 5448 5444 5440 5436 5432 5427 5423 5419 5416 5413 5410 5407 5404 5402 5400 5398 5397 5395 5393
5516 5514 5513 5511 5509 5507 5504 5502 5499 5496 5493 5490 5486 5483 5479 5475 5471 5467 5462 5459 5455 5451 5446 5442 5438 5434 5429 5425 5421 5417 5413 5410 5406 5403 5400 5398 5396 5394 5392 5390 5389 5387 5385
5505 5504 5502 5501 5499 5496 5494 5491 5488 5485 5482 5479 5475 5472 5468 5464 5460 5456 5452 5448 5444 5440 5436 5432 5427 5423 5419 5415 5411 5408 5404 5400 5397 5394 5392 5390 5388 5386 5384 5382 5381 5379 5377
5495 5494 5492 5491 5488 5486 5483 5481 5478 5475 5472 5468 5465 5461 5457 5453 5449 5445 5442 5437 5433 5429 5425 5421 5417 5413 5409 5405 5402 5398 5395 5391 5388 5386 5384 5382 5380 5378 5376 5375 5373 5372 5370
5486 5484 5483 5481 5478 5476 5473 5470 5467 5464 5461 5458 5454 5450 5447 5443 5439 5436 5432 5428 5424 5419 5415 5411 5408 5404 5400 5397 5393 5390 5386 5383 5381 5378 5376 5374 5373 5371 5370 5368 5367 5365 5364
5476 5474 5472 5470 5468 5466 5463 5460 5457 5454 5451 5447 5444 5440 5437 5433 5430 5426 5422 5418 5414 5410 5406 5402 5399 5395 5392 5388 5385 5382 5379 5376 5374 5371 5370 5368 5366 5365 5363 5362 5360 5359 5358
5465 5464 5462 5460 5458 5455 5453 5450 5447 5444 5441 5437 5434 5431 5427 5424 5420 5416 5413 5409 5405 5401 5397 5394 5390 5387 5384 5381 5378 5375 5372 5370 5367 5365 5363 5362 5360 5359 5357 5356 5354 5353 5353
5455 5454 5452 5450 5448 5445 5443 5440 5437 5434 5431 5427 5424 5421 5417 5414 5411 5407 5403 5399 5396 5392 5389 5386 5383 5380 5377 5374 5371 5368 5366 5364 5362 5360 5358 5357 5355 5353 5352 5350 5349 5349 5348
5445 5444 5442 5440 5438 5436 5433 5430 5427 5424 5421 5418 5415 5412 5408 5405 5402 5398 5395 5391 5388 5385 5382 5378 5376 5373 5370 5367 5365 5362 5360 5358 5356 5354 5353 5352 5350 5348 5347 5346 5345 5344 5344
5436 5434 5433 5431 5429 5426 5424 5421 5418 5415 5412 5409 5406 5403 5400 5397 5393 5390 5387 5384 5381 5378 5375 5372 5369 5366 5363 5361 5359 5357 5355 5353 5351 5350 5348 5347 5345 5344 5343 5341 5341 5340 5341
5426 5425 5423 5421 5419 5417 5414 5412 5409 5407 5404 5401 5398 5395 5392 5389 5386 5383 5380 5377 5374 5371 5369 5366 5363 5361 5358 5356 5354 5352 5350 5348 5347 5345 5344 5343 5341 5340 5338 5338 5337 5337 5338
5417 5416 5414 5412 5410 5408 5406 5403 5401 5398 5396 5393 5390 5388 5385 5382 5380 5377 5374 5371 5369 5366 5363 5361 5358 5356 5353 5351 5349 5348 5346 5345 5343 5342 5340 5339 5338 5336 5335 5335 5335 5335 5335
5409 5407 5406 5404 5402 5400 5397 5395 5393 5390 5388 5385 5383 5380 5378 5375 5373 5370 5368 5365 5363 5361 5358 5356 5354 5351 5349 5347 5346 5344 5342 5341 5340 5338 5337 5336 5335 5334 5333 5332 5332 5333 5333